Location: Dammartin
(48.9032°N, 1.6195°E)
Time: 13:02:43
(UTC+00:00)

AAUSAT CUBESAT 2 - Visible Passes

Search period start: 01 December 2023 00:00
Search period end: 11 December 2023 00:00
Orbit: 534 x 546 km, 97.6° (Epoch: 30 November)

Date Brightness Start Highest point End Pass type
(mag) Time Alt. Az. Time Alt. Az. Time Alt. Az.
06 Dec ? 16:55:39 10° W 16:56:01 10° W 16:56:23 10° W visible
07 Dec ? 16:46:45 10° WSW 16:48:23 12° W 16:50:01 10° WNW visible
08 Dec ? 16:38:29 10° SW 16:40:42 15° W 16:42:56 10° NW visible
09 Dec ? 16:30:22 10° SW 16:33:01 17° W 16:35:40 10° NW visible
